Date,TemperatureHighF,TemperatureAvgF,TemperatureLowF,DewpointHighF,DewpointAvgF,DewpointLowF,HumidityHigh,HumidityAvg,HumidityLow,PressureMaxIn,PressureMinIn,WindSpeedMaxMPH,WindSpeedAvgMPH,GustSpeedMaxMPH,PrecipitationSumIn
2013-4-1,51,46,41,47,43,38,100,91,81,30.13,30.00,17,5,28,0.00
2013-4-2,48,39,32,38,29,24,95,72,43,30.25,30.10,22,4,23,0.00
2013-4-3,49,39,30,30,25,20,66,57,46,30.33,30.22,12,4,16,0.00
2013-4-4,42,36,31,37,32,25,100,87,55,30.31,30.01,12,1,18,0.00
2013-4-5,51,41,35,46,39,35,100,94,73,30.22,30.00,13,1,16,0.00
2013-4-6,61,49,40,41,38,36,87,66,46,30.33,30.22,16,3,21,0.00
2013-4-7,65,53,45,46,42,37,82,66,43,30.34,30.25,16,5,23,0.00
2013-4-8,70,59,51,54,50,46,94,75,49,30.32,30.24,17,6,25,0.00
2013-4-9,76,63,55,57,54,50,96,75,42,30.40,30.30,14,4,23,0.00
2013-4-10,75,65,57,59,56,53,94,75,49,30.34,30.16,15,4,20,0.00
2013-4-11,72,63,58,61,57,51,100,82,50,30.18,29.90,15,6,30,0.00
2013-4-12,60,55,46,59,52,41,100,89,62,30.06,29.80,20,5,30,0.00
2013-4-13,63,52,43,43,39,30,94,65,36,30.22,30.05,25,4,30,0.00
2013-4-14,65,54,48,48,41,36,100,62,43,30.23,30.10,14,3,24,0.00
2013-4-15,64,55,48,60,54,48,100,96,81,30.34,30.09,16,5,22,0.00
2013-4-16,69,61,53,62,58,53,100,90,67,30.46,30.34,16,5,21,0.00
2013-4-17,66,61,57,64,60,57,100,96,81,30.47,30.32,22,4,33,0.00
2013-4-18,69,63,58,62,58,55,100,86,63,30.32,30.11,15,4,23,0.00
2013-4-19,62,56,38,62,55,37,100,97,91,30.10,29.92,28,8,34,0.00
2013-4-20,52,41,32,37,34,30,98,77,50,30.39,30.08,20,3,31,0.00
2013-4-21,54,46,40,40,35,30,90,66,51,30.51,30.38,17,3,25,0.00
2013-4-22,57,48,38,47,41,38,100,80,57,30.48,30.31,18,4,21,0.00
2013-4-23,68,52,41,48,41,33,80,66,44,30.36,30.23,15,2,17,0.00
2013-4-24,65,54,45,57,51,45,100,88,66,30.28,30.16,22,8,30,0.00
2013-4-25,59,47,38,48,38,29,100,76,35,30.47,30.27,12,2,17,0.00
2013-4-26,64,50,42,45,37,32,91,62,40,30.53,30.43,15,4,21,0.00
2013-4-27,50,48,46,49,47,44,100,97,82,30.52,30.33,15,2,24,0.00
2013-4-28,51,48,46,51,48,46,100,100,100,30.33,30.10,13,4,23,0.00
2013-4-29,62,54,48,59,53,48,100,96,78,30.18,30.12,13,4,17,0.00
2013-4-30,67,58,52,58,55,52,100,91,60,30.33,30.15,15,2,20,0.00